Regional Weather Roundup
Issued by NWS

Home | Current Version | Previous Version | Text Only | Print | Product List | Glossary Off
Versions: 1 2 3 4 5 6 7 8 9 10 11 12 13 14 15 16 17 18 19 20 21 22 23 24 25 26 27

000
ASUS45 KTFX 191910
RWRMT
MONTANA REGIONAL WEATHER ROUNDUP
NATIONAL WEATHER SERVICE GREAT FALLS MT
100 PM MDT SAT MAY 19 2018

NOTE: "FAIR" INDICATES FEW OR NO CLOUDS BELOW 12000 FEET WITH NO
SIGNIFICANT WEATHER AND/OR OBSTRUCTIONS TO VISIBILITY.

MTZ001>007-043-192000-
WEST OF THE DIVIDE

CITY           SKY/WX    TMP DP  RH WIND       PRES   REMARKS
KALISPELL      FAIR      63  40  42 E7        30.07F
MISSOULA       FAIR      58  40  51 E15G24    30.10F
BUTTE          CLOUDY    47  37  68 SE8       30.15F
MULLAN PASS    CLOUDY    46  37  71 VRB5      30.10S
ANACONDA         N/A     48  39  71 N3        30.14F
DEER LODGE       N/A     52  41  66 SE3       30.17S
HAMILTON         N/A     54  39  58 MISG      30.10F
RONAN            N/A     59  41  51 W5G12     30.10F
$$

MTZ008-052>055-192000-
SOUTHWEST MONTANA

CITY           SKY/WX    TMP DP  RH WIND       PRES   REMARKS
BOZEMAN        CLOUDY    53  40  61 NW7       30.15S
DILLON         CLOUDY    49  39  68 E6        30.14F
ENNIS          CLOUDY    50  39  66 NW7       30.18F
W YELLOWSTONE  PTSUNNY   52  39  62 CALM      30.11S
$$

MTZ009-010-012-014-046-048-049-054-192000-
EAST SLOPES AND CENTRAL MONTANA

CITY           SKY/WX    TMP DP  RH WIND       PRES   REMARKS
CUT BANK       CLOUDY    47  41  80 SE12      30.19F
GREAT FALLS    CLOUDY    53  41  63 E6        30.18F
MALMSTROM AFB  CLOUDY    51  42  69 CALM      30.18S
HELENA         LGT RAIN  47  43  86 NW5       30.17S FOG
AUGUSTA        LGT RAIN  45  39  78 CALM      30.18F
BOWMANS CRNR   LGT RAIN  44  40  85 NW5       30.16F
CHOTEAU          N/A     48  41  76 SW3       30.20F
FAIRFIELD      CLOUDY    47  40  75 CALM      30.18F
POWER          PTSUNNY   49  40  69 E8        30.18S
RAYNESFORD     PTSUNNY   52  40  62 NE18      30.16F
ULM            CLOUDY    52  42  69 N3        30.17F
$$

MTZ011-013-016-021-045-047-050-051-192000-
NORTH CENTRAL MONTANA

CITY           SKY/WX    TMP DP  RH WIND       PRES   REMARKS
HAVRE          FAIR      60  37  42 SE22G28   30.23F
LEWISTOWN      CLOUDY    46  37  71 SE24G31   30.22S
N BAR RANCH    CLOUDY    41  39  93 SE17      30.28S
CHINOOK          N/A     57  37  47 E14       30.24F
DENTON         PTSUNNY   50  39  66 SE18      30.19F
GEYSER         FAIR      52  42  71 SE20G29   30.18F
GRASS RANGE    LGT RAIN  46  39  77 SE16      30.23S
JUDITH GAP     LGT RAIN  41  39  92 SE18      30.23S
ROY            CLOUDY    48  37  66 SE23      30.24S
STANFORD       FAIR      47  40  74 SE22      30.20F
WINIFRED       PTSUNNY   48  39  69 SE17      30.23S
$$

MTZ017>020-022>027-061-062-192000-
NORTHEAST MONTANA

CITY           SKY/WX    TMP DP  RH WIND       PRES   REMARKS
GLASGOW        FAIR      60  36  40 SE16      30.28F
GLENDIVE       CLOUDY    55  35  47 E7        30.30F
JORDAN           N/A     55  39  54 SE12      30.29S
MALTA          SUNNY     63  36  36 SE12G21   30.24F
WOLF POINT     FAIR      63  35  35 SE10G22   30.30F
PLENTYWOOD       N/A     63  25  23 E6        30.30S
POPLAR           N/A     61  32  33 MISG      30.30F
$$

MTZ028>42-056>058-192000-
SOUTHCENTRAL AND SOUTHEAST MONTANA

CITY           SKY/WX    TMP DP  RH WIND       PRES   REMARKS
BAKER          FAIR      56  36  47 E15G22    30.29S
BILLINGS       CLOUDY    47  41  80 E13       30.24S
LIVINGSTON     CLOUDY    45  38  76 E17       30.19S
MILES CITY     FAIR      57  40  52 SE12G20   30.28S
BIG TIMBER     CLOUDY    43  41  93 E6        30.24S
FORSYTH          N/A     54  37  54 E9        30.26F
LAUREL           N/A     46  43  87 E13       30.25S
$$

REGIONAL REPORTS...DAKOTAS

CITY           SKY/WX    TMP DP  RH WIND       PRES   REMARKS
WILLISTON      FAIR      66  29  24 E13G21    30.30F
MINOT          FAIR      67  25  20 N13G22    30.27F
DICKINSON      FAIR      60  24  25 E21G28    30.26F
BISMARCK       FAIR      63  31  30 NE17G28   30.24F
GRAND FORKS    FAIR      64  39  39 NE21G30   30.19F
FARGO          FAIR      64  36  35 NE21G35   30.14F
BUFFALO SD       N/A     57  30  35 E16G25    30.19
RAPID CITY     CLOUDY    50  36  58 N17       30.24S
$$

REGIONAL REPORTS...WYOMING/IDAHO/WASHINGTON

CITY           SKY/WX    TMP DP  RH WIND       PRES   REMARKS
GILLETTE       CLOUDY    49  37  63 N10       30.22F
SHERIDAN       CLOUDY    49  41  74 E7        30.25F
BUFFALO WY     CLOUDY    44  39  82 MISG      30.26S
CODY           CLOUDY    49  36  61 N9        30.21F
YELLOWSTONE LA   N/A     52  34  50 VRB3      30.18F
IDAHO FALLS    FAIR      62  45  53 N5        30.04F
SALMON         FAIR      61  44  53 VRB3      30.05F
BOISE          FAIR      73  48  41 VRB3      29.95F
SPOKANE        PTSUNNY   64  44  48 N7        30.02F
$$

REGIONAL REPORTS...ALBERTA

CITY           SKY/WX    TMP DP  RH WIND       PRES   REMARKS
CALGARY        MOSUNNY   61  37  41 S24G33    30.13F
CARDSTON         N/A     52  41  66 SE9G17      N/A
EDMONTON       SUNNY     68  34  28 S21G30    30.09F
FORT MCMURRAY  MOSUNNY   73  34  23 S12G18    30.07F
HIGH LEVEL     MOSUNNY   75  36  23 SE9       29.96F
LETHBRIDGE     PTSUNNY   55  41  58 S13G23    30.19F
LLOYDMINSTER   MOSUNNY   68  27  21 S18G31    30.19F
MEDICINE HAT   MOSUNNY   64  39  39 S13G22    30.20F
MILK RIVER       N/A     54  39  58 SE18        N/A
PEACE RIVER    SUNNY     72  37  28 E13       30.01F
PINCHER CREEK    N/A     52  41  66 SE17        N/A
WATERTON GATE    N/A     54  41  62 NW6         N/A
$$

REGIONAL REPORTS...SASKATCHEWAN

CITY           SKY/WX    TMP DP  RH WIND       PRES   REMARKS
CORONACH         N/A     64  25  22 E7          N/A
CYPRESS HILLS    N/A     54  34  47 S15G21      N/A
ESTEVAN        MOSUNNY   66  21  18 VRB6      30.27F
MOOSE JAW        N/A     66  21  18 S7          N/A
PRINCE ALBERT  MOSUNNY   70  32  24 VRB2      30.22F
REGINA         MOSUNNY   66  25  20 N7G17     30.27F
ROCKGLEN         N/A     61  27  27 SE9G18      N/A
SASKATOON      PTSUNNY   70  30  23 VRB9G18   30.26F
SWIFT CURRENT  SUNNY     64  23  20 S17G24    30.25F
VAL MARIE        N/A     63  21  20 S15G23      N/A
$$




USA.gov is the U.S. government's official web portal to all federal, state and local government web resources and services.